Temperature
14 15 15 16 12 10 12 13 13 14 14 15 15 15 14 14 15 15 15 15 15 15 15 15 15 15 15 15 15 15 15 15 15 16 16 16 15 15 15 15 15 15 15 15 15 15 15 15 15
14 15 15 15 11 11 12 12 12 14 15 15 15 15 14 14 15 15 15 15 15 15 15 15 15 15 15 15 15 15 15 15 15 15 15 15 15 15 15 15 15 15 15 15 15 15 15 15 15
14 15 15 10 10 11 13 13 12 14 15 15 14 14 14 14 14 15 15 15 15 15 15 15 15 15 15 15 15 15 15 15 15 15 15 15 15 15 15 15 15 15 15 15 15 15 15 15 15
14 14 13 10 11 11 12 13 12 13 14 14 14 13 14 14 14 15 15 15 15 15 15 14 14 14 14 15 15 15 15 15 15 15 15 15 15 15 15 14 14 14 14 14 15 15 15 14 14
14 14 10 10 11 11 11 12 13 13 13 14 13 12 13 14 14 14 14 14 14 14 14 14 14 14 14 14 14 14 14 14 14 14 14 14 14 14 14 14 14 14 14 14 14 14 14 14 14
13 10 9 10 11 11 11 13 13 12 13 13 13 12 13 14 14 14 14 14 14 14 14 14 14 14 14 14 14 14 14 14 14 14 14 14 14 14 14 14 14 14 14 14 14 14 14 14 14
12 8 9 10 11 11 12 13 12 12 12 13 14 12 13 13 13 13 13 13 13 13 13 13 13 13 13 13 13 13 14 14 14 14 14 14 14 14 14 14 14 14 14 14 14 14 14 14 14
12 8 10 9 10 11 12 13 13 13 13 14 14 12 13 13 13 13 13 13 13 13 13 13 13 13 13 13 13 13 13 13 13 13 14 14 14 13 14 14 14 13 14 14 14 14 13 13 13
12 8 9 9 10 11 12 12 13 13 13 13 13 13 14 13 13 12 12 12 12 12 13 13 13 13 13 13 13 13 13 13 13 13 13 13 13 13 13 13 13 13 13 13 13 13 13 13 13
10 8 9 10 10 11 11 12 12 12 12 12 12 13 13 13 13 12 12 12 12 12 12 12 12 12 12 12 12 12 12 12 12 13 13 13 13 13 13 13 13 13 13 13 13 13 13 13 13
9 8 9 10 11 11 11 11 12 11 10 12 13 13 13 13 12 12 12 12 12 12 12 12 12 12 12 12 12 12 12 12 12 12 12 12 12 12 12 12 12 12 12 12 13 12 12 12 12
8 9 10 10 11 11 11 11 11 11 12 13 13 13 13 12 12 12 12 12 12 12 12 12 12 11 11 11 12 12 12 12 12 12 12 12 12 12 12 12 12 12 12 12 12 12 12 12 12
8 9 10 10 11 11 11 10 10 11 12 12 12 12 12 12 12 12 12 12 12 11 11 11 11 11 11 11 11 11 11 11 11 11 11 11 12 12 11 11 11 11 11 11 11 12 12 12 12
9 9 9 10 10 10 9 9 9 10 12 12 12 12 12 12 12 11 11 11 11 11 11 11 11 11 11 11 11 11 11 11 11 11 11 11 11 11 11 11 11 11 11 11 11 11 11 11 11
9 8 8 9 9 9 9 8 8 11 11 11 11 11 12 11 11 11 11 11 11 11 11 11 11 11 11 11 10 10 11 11 11 11 11 11 11 11 11 11 11 11 11 11 10 10 11 11 11
8 8 8 8 8 9 9 9 9 11 10 10 11 11 11 11 11 11 11 11 11 11 11 10 10 10 10 10 10 10 10 10 10 10 10 10 10 10 10 10 10 10 10 10 10 10 10 10 10
7 7 7 8 8 8 8 8 9 10 10 9 10 10 10 11 11 11 11 11 11 11 10 10 10 10 10 10 10 10 10 10 10 10 10 10 10 10 10 10 10 10 10 10 10 10 10 10 10
6 6 7 7 8 7 7 7 8 9 9 9 9 10 10 10 11 11 10 10 10 10 10 10 10 9 9 9 9 9 9 9 9 10 10 9 9 9 9 9 9 9 9 9 9 9 9 9 9
7 6 7 7 8 7 7 7 8 8 8 7 8 9 9 10 10 10 10 10 10 10 10 10 9 9 9 9 9 9 9 9 9 9 9 9 9 9 9 9 9 9 9 9 9 9 9 9 9
6 6 6 7 7 7 6 6 7 7 7 8 8 8 9 9 9 9 9 9 10 10 9 9 9 9 9 9 9 9 9 9 9 9 9 9 9 8 8 8 8 8 8 8 8 8 8 8 8
6 6 6 6 7 7 6 6 7 7 7 8 8 8 9 9 9 9 9 9 9 9 9 9 9 9 9 8 8 8 8 8 8 8 8 8 8 8 8 8 8 8 8 8 8 8 8 8 8
6 6 6 6 6 5 6 6 6 6 6 6 7 7 8 8 9 9 9 9 9 9 9 9 9 9 8 8 8 8 8 8 8 8 8 8 8 8 8 8 7 7 7 8 7 7 7 8 8
6 6 6 6 5 5 5 5 6 6 6 6 6 7 8 8 8 8 9 9 9 9 9 9 8 8 8 8 8 8 7 7 8 7 7 8 7 7 7 7 7 7 7 7 7 7 7 7 7
6 5 5 4 4 5 5 5 5 5 6 6 6 7 7 8 8 8 8 9 8 8 8 8 8 8 8 7 7 7 7 7 7 7 7 7 7 7 7 7 7 7 7 7 7 7 7 7 7
5 5 4 4 4 5 5 5 5 6 6 6 6 6 7 7 7 7 8 8 8 8 8 7 7 7 7 7 7 7 7 7 7 7 7 7 7 7 7 6 6 6 6 6 6 6 6 6 6
5 5 4 5 4 4 4 4 5 5 5 6 6 6 6 6 7 7 7 7 7 7 7 7 7 7 7 7 7 7 7 7 7 7 7 7 6 6 6 6 6 6 6 6 6 6 6 6 6
4 4 5 4 3 3 4 4 4 5 4 4 5 5 5 6 6 7 7 7 7 7 7 7 7 7 7 7 7 6 6 6 6 6 6 6 6 6 6 6 6 6 6 6 5 5 5 5 6
4 4 3 4 4 4 5 4 4 4 4 4 4 4 5 5 6 6 6 6 6 6 7 6 6 7 7 6 6 6 6 6 6 6 6 6 6 6 6 5 5 5 5 5 5 5 5 5 5
3 3 3 3 3 4 4 5 5 4 4 4 3 4 4 5 5 6 6 6 6 6 6 6 6 6 6 6 6 6 6 6 5 5 5 5 5 5 5 5 5 5 5 5 5 5 5 5 5
3 3 2 3 3 2 2 4 5 3 3 3 3 4 4 4 5 5 5 5 5 5 5 5 6 6 6 6 6 5 5 5 5 5 5 5 5 5 5 5 5 5 5 5 5 5 4 4 4
Wind_Speed
6 4 3 4 5 4 4 5 4 3 3 2 1 4 6 5 4 3 0 2 3 4 6 8 10 10 9 9 9 9 9 10 10 10 10 10 10 10 10 9 9 9 9 9 9 10 10 10 11
2 3 5 5 5 1 6 5 5 5 3 2 2 3 3 1 0 1 0 1 3 5 6 8 10 10 9 9 9 9 9 9 9 9 9 9 9 9 9 8 8 8 7 7 8 9 10 10 10
2 5 5 5 4 7 6 4 6 2 1 2 2 1 2 2 1 1 2 2 4 5 6 8 10 10 10 9 9 9 9 9 9 9 9 8 9 9 8 8 8 7 7 8 8 9 9 9 10
4 5 5 3 5 6 5 3 3 2 1 1 3 1 0 1 2 2 2 3 5 4 6 8 10 10 10 9 9 9 9 9 8 8 8 8 8 8 8 8 8 8 8 8 8 8 8 9 9
4 4 3 1 6 5 4 4 3 3 2 1 3 2 1 2 1 3 4 4 5 3 4 7 10 10 10 9 9 9 8 8 8 8 8 7 7 7 8 8 7 7 8 8 8 8 8 8 9
4 4 3 5 6 5 4 3 3 3 2 2 3 3 2 1 2 3 4 4 3 3 3 5 8 9 9 9 8 8 8 8 8 7 7 7 6 7 7 7 7 7 7 8 8 8 8 8 9
5 4 4 5 4 5 4 3 4 4 4 5 5 4 2 2 2 3 4 3 3 4 4 4 5 7 8 9 8 8 7 7 7 7 7 6 6 6 6 6 6 6 7 7 7 7 8 8 8
5 4 3 4 5 6 3 3 3 5 5 3 6 6 5 4 3 4 3 3 3 3 3 4 5 5 5 6 8 8 7 7 7 7 7 7 6 6 6 6 5 6 6 7 8 8 7 8 9
4 3 5 7 7 5 2 2 1 1 3 2 2 4 3 6 6 5 3 2 1 1 1 2 3 3 3 5 6 7 7 7 7 7 7 6 6 5 5 5 5 5 5 6 7 7 7 7 8
4 5 8 5 5 4 2 3 3 1 2 2 2 1 2 6 8 7 6 5 4 3 2 2 2 2 2 3 5 5 5 6 6 6 6 6 5 5 4 4 4 4 5 5 6 7 7 7 7
4 7 5 4 4 3 3 3 2 4 6 7 7 6 6 7 7 8 7 7 6 4 3 2 2 2 2 3 4 4 4 5 5 6 6 5 5 5 4 4 4 4 5 5 5 6 6 6 6
4 5 5 4 2 3 4 3 3 6 9 6 7 7 7 8 9 9 8 7 5 4 3 3 3 2 2 3 3 3 3 3 3 4 5 5 4 3 3 3 3 4 4 4 5 5 5 6 6
5 5 5 5 5 4 4 6 5 8 8 4 4 6 8 9 8 7 6 6 5 5 4 3 3 3 3 3 2 3 3 3 4 4 5 5 4 3 3 2 3 3 4 4 3 4 4 4 5
4 4 5 5 5 4 6 7 5 10 6 4 5 7 8 8 8 6 5 6 6 6 5 3 3 4 3 3 2 2 2 3 4 4 5 6 5 4 3 2 2 2 3 4 4 4 3 3 4
1 3 6 6 6 4 3 8 9 9 4 5 6 7 7 7 7 8 8 7 7 6 5 4 4 4 4 4 3 2 2 3 3 3 5 6 6 5 4 2 1 2 3 4 4 4 4 3 3
1 2 5 5 4 5 5 11 8 5 5 6 6 6 6 7 7 7 6 6 6 5 5 5 4 4 4 4 3 2 2 2 2 3 4 5 5 6 4 3 2 2 3 4 3 2 2 2 2
1 4 6 6 4 4 7 9 6 3 5 7 7 7 7 6 6 6 6 6 6 6 5 5 5 5 4 4 3 3 2 2 2 3 4 4 5 5 5 3 3 4 3 2 2 2 2 3 3
6 6 6 7 4 3 6 11 9 5 5 7 7 7 7 7 8 7 6 6 5 5 5 5 5 5 4 3 3 2 2 2 2 2 4 5 5 5 5 3 3 4 2 2 2 3 2 3 3
4 6 8 8 4 4 9 13 12 8 6 8 8 8 8 8 6 5 5 5 5 5 5 6 5 5 5 3 3 2 2 2 2 2 3 5 5 5 5 3 3 3 3 3 3 3 3 2 3
5 7 9 7 3 5 7 12 11 9 8 9 10 9 8 6 4 4 5 5 6 6 6 6 6 6 6 5 3 2 2 2 2 2 2 4 5 5 4 4 3 3 3 4 4 4 2 2 2
9 10 9 7 5 4 5 9 8 7 6 6 6 7 7 7 7 5 5 6 6 6 7 7 7 6 6 5 3 2 2 2 1 1 1 2 4 4 4 4 4 4 4 4 4 5 4 3 1
10 8 8 7 4 5 2 7 7 5 5 6 6 6 6 6 6 5 6 6 6 6 6 6 6 6 6 6 6 5 4 3 3 2 2 2 3 4 4 5 5 4 4 5 5 4 3 5 3
6 2 5 6 6 5 4 5 8 3 7 8 7 6 7 6 5 5 5 7 6 6 6 6 6 6 6 6 7 6 4 3 2 2 2 2 1 2 3 4 4 4 4 5 5 4 3 3 4
3 1 1 0 2 7 8 7 8 5 8 6 6 6 6 5 4 4 3 3 4 4 4 5 6 6 6 6 6 6 5 4 4 3 3 2 1 1 2 3 4 4 4 4 5 5 4 4 4
3 3 0 1 3 8 5 6 9 7 6 7 7 6 5 4 4 3 3 3 3 4 5 5 6 6 6 6 6 6 6 6 6 5 4 3 2 2 3 3 3 3 4 4 4 4 4 5 5
6 7 6 5 5 4 3 8 7 5 4 4 4 4 3 3 3 3 3 4 4 4 5 5 6 6 6 6 5 5 4 4 4 4 4 4 3 3 3 3 3 4 4 4 4 3 3 4 5
5 6 5 3 1 3 6 6 6 3 2 1 1 1 2 2 2 2 2 2 3 4 4 5 6 5 5 6 5 5 4 4 4 3 3 3 2 2 3 3 3 3 4 4 4 3 3 4 4
4 4 3 4 4 5 5 5 4 4 3 2 2 2 2 1 0 0 0 1 3 3 3 3 4 5 5 5 5 4 4 4 4 3 3 3 3 2 3 3 3 3 3 4 4 3 3 4 3
2 3 3 3 3 4 4 6 3 4 4 3 3 2 1 1 0 0 1 0 1 2 3 3 3 3 3 4 4 4 4 4 3 3 3 3 3 3 3 4 4 4 4 4 4 4 4 4 3
4 4 4 4 4 4 3 6 2 1 0 0 1 1 1 0 1 1 1 2 2 1 2 3 3 3 3 3 3 3 3 3 3 3 3 3 3 3 3 4 4 4 4 4 4 4 4 4 4
Wind_Direction
356 20 61 56 57 53 240 241 220 224 218 208 150 145 153 162 170 192 263 121 123 142 152 150 142 136 131 127 122 122 120 119 117 115 115 117 115 112 109 109 109 109 110 109 108 108 105 104 103
7 44 54 62 100 192 255 235 217 218 203 126 79 111 122 186 258 109 92 144 125 135 139 145 140 137 133 130 127 125 125 121 120 119 118 118 119 118 114 111 110 108 108 110 110 106 106 106 105
56 51 83 86 147 195 226 223 216 239 186 134 102 82 146 178 192 201 221 157 119 123 134 142 142 139 135 131 130 126 124 124 121 119 118 120 119 117 117 114 112 110 106 106 111 104 107 108 109
73 49 60 96 218 223 222 236 198 166 88 88 128 96 304 314 206 206 151 131 125 118 129 142 145 143 138 134 131 126 124 123 123 121 119 117 119 117 112 111 110 110 108 106 107 108 106 109 111
60 80 82 245 241 245 242 248 192 172 178 150 134 153 261 325 81 116 118 123 130 124 120 138 148 146 141 137 135 130 125 124 122 123 122 120 119 120 115 108 108 111 110 109 107 107 107 110 113
62 78 129 232 244 255 251 229 179 185 188 167 147 156 233 317 117 131 121 115 111 114 105 122 144 147 145 141 141 136 130 124 120 119 120 118 117 117 116 115 110 110 112 111 108 105 109 109 111
117 123 193 219 243 258 246 192 178 183 198 205 169 158 240 243 187 136 115 104 93 90 86 87 105 136 143 144 141 136 130 126 121 116 112 114 116 115 119 122 121 115 111 107 104 103 107 106 108
130 126 195 220 222 247 236 178 194 180 209 187 157 168 216 218 159 119 101 93 95 95 92 91 88 96 122 134 144 140 136 131 125 117 107 103 108 113 114 117 124 124 119 115 107 101 106 106 105
103 115 218 219 206 234 208 186 252 195 153 173 197 197 208 147 132 123 109 93 116 120 104 99 99 90 105 130 137 140 137 132 125 116 111 104 97 100 103 111 119 122 121 116 111 104 106 106 103
126 189 224 217 201 211 210 203 202 154 195 218 241 252 145 144 155 164 170 180 192 203 198 146 122 119 125 135 125 121 130 128 124 118 114 106 100 98 101 107 110 108 109 112 111 105 102 100 95
173 206 227 236 225 223 233 242 210 179 229 219 211 199 166 169 179 186 189 190 199 199 201 192 168 152 148 131 123 117 120 126 125 124 120 111 101 94 91 88 80 82 87 88 95 93 91 94 97
201 239 232 242 220 215 224 228 228 214 231 224 207 183 172 182 193 198 198 198 194 194 210 201 182 157 159 135 126 125 122 125 127 137 136 125 109 96 92 88 83 80 85 87 86 90 92 94 98
223 251 247 248 248 243 247 243 241 250 251 241 200 180 192 199 205 207 201 195 189 193 202 202 185 170 157 131 133 127 133 140 149 148 152 147 135 130 112 99 98 95 98 98 96 99 99 98 94
232 244 266 265 251 243 235 257 240 253 241 214 199 204 206 209 208 203 198 200 198 198 200 196 190 178 158 147 149 138 144 154 155 158 163 158 151 143 131 113 108 111 121 118 116 118 116 109 103
266 276 285 259 234 233 211 266 236 243 202 207 213 213 216 219 209 207 205 204 202 198 195 187 185 166 162 156 155 141 149 155 151 164 167 163 161 157 148 137 128 131 137 127 115 114 111 110 105
329 262 265 263 213 211 181 254 255 232 190 217 223 220 223 224 213 215 209 204 198 190 191 186 180 164 169 158 153 145 147 148 152 159 162 164 167 165 151 147 156 147 137 130 134 132 127 119 117
240 240 248 277 228 198 201 249 261 222 195 227 229 223 222 227 227 221 210 202 195 189 186 178 165 165 168 155 143 139 142 153 157 159 158 164 168 167 155 151 154 149 134 130 149 138 140 134 122
224 230 247 247 245 195 229 253 265 258 234 239 239 235 230 229 232 217 202 197 189 182 175 171 162 160 154 139 121 117 119 142 146 161 164 159 160 164 154 145 150 147 144 146 140 132 119 133 134
216 229 252 258 250 229 246 260 266 258 246 246 242 235 233 235 233 206 191 186 177 169 171 173 167 166 156 152 155 162 179 189 185 175 165 161 161 161 152 148 146 149 162 160 143 132 126 112 124
244 257 262 277 257 240 267 270 266 250 241 234 230 230 230 231 227 205 189 182 180 179 181 179 179 174 173 176 171 168 168 182 186 168 153 165 165 165 162 154 161 160 155 149 149 139 136 135 144
238 236 245 257 307 276 286 285 258 251 238 233 226 223 224 219 218 208 197 196 188 188 188 188 186 180 177 169 145 111 99 85 123 175 182 172 168 166 164 165 162 164 166 170 170 163 156 163 180
247 234 236 244 256 270 230 279 269 244 251 239 232 224 227 228 219 207 195 195 198 199 192 185 182 179 176 167 164 162 170 183 203 196 184 163 165 167 171 167 165 167 167 173 180 176 173 165 172
229 217 219 232 224 263 229 243 276 243 248 246 233 222 224 222 210 207 200 195 197 193 188 184 177 177 172 168 170 171 177 183 167 157 156 161 169 167 171 167 165 172 173 176 178 177 176 180 174
192 93 28 217 179 249 222 208 270 223 224 232 227 221 221 215 204 203 198 178 180 177 176 173 172 174 171 170 169 172 173 170 162 165 172 179 194 196 182 171 170 175 180 185 184 182 180 185 176
149 133 349 286 229 242 192 203 249 243 225 217 223 226 218 207 193 191 188 184 179 175 174 174 172 173 172 172 173 178 180 177 182 183 183 184 192 214 215 186 179 182 187 184 175 175 183 182 177
200 178 186 214 230 268 215 225 250 261 243 224 213 204 197 201 198 197 198 192 188 183 176 177 178 176 173 174 176 177 176 178 189 187 185 189 199 207 196 182 176 176 172 170 164 167 179 173 174
180 205 190 164 245 260 251 269 298 303 305 239 201 173 199 215 212 205 203 190 187 182 182 181 179 176 179 177 172 171 174 175 179 182 179 181 185 183 169 167 163 155 156 157 154 161 168 163 167
190 166 142 179 207 249 267 255 248 273 266 237 207 218 246 231 188 204 188 194 188 176 164 161 162 171 174 171 175 175 176 175 170 166 169 172 177 167 163 165 156 149 148 149 148 152 158 153 160
164 179 181 192 202 200 254 267 232 230 234 225 224 220 220 218 286 341 333 84 154 138 141 146 147 141 150 163 166 160 169 164 156 164 177 171 163 164 168 168 160 154 153 154 153 156 155 154 158
195 200 175 196 231 206 226 268 309 294 298 257 304 339 31 46 41 45 45 59 66 104 142 150 152 150 152 146 146 157 159 157 160 167 175 165 158 160 166 162 156 158 157 159 160 162 156 163 171
Height
1500 1501 1503 1505 1510 1521 1520 1513 1508 1507 1505 1504 1504 1505 1506 1509 1512 1515 1510 1509 1510 1512 1514 1516 1518 1519 1521 1523 1524 1525 1526 1528 1529 1530 1531 1531 1532 1533 1534 1535 1536 1537 1538 1539 1540 1541 1542 1542 1543
1500 1502 1504 1505 1516 1524 1519 1509 1507 1503 1502 1503 1503 1504 1505 1506 1507 1508 1507 1508 1510 1512 1514 1516 1517 1519 1521 1522 1523 1525 1526 1527 1528 1529 1530 1531 1532 1533 1534 1535 1536 1537 1538 1539 1540 1541 1542 1542 1543
1500 1502 1504 1508 1517 1519 1510 1503 1503 1501 1501 1502 1503 1504 1505 1505 1506 1506 1507 1508 1510 1512 1513 1515 1517 1518 1520 1521 1523 1524 1525 1526 1527 1529 1530 1531 1531 1532 1534 1535 1536 1537 1538 1539 1540 1541 1542 1543 1543
1501 1503 1505 1512 1512 1509 1504 1500 1500 1500 1501 1501 1502 1504 1504 1505 1505 1506 1507 1508 1510 1511 1513 1514 1516 1517 1519 1520 1522 1523 1524 1525 1527 1528 1529 1530 1531 1532 1533 1534 1535 1536 1538 1539 1539 1540 1541 1542 1543
1500 1502 1509 1513 1509 1504 1500 1499 1499 1499 1500 1501 1502 1503 1503 1504 1505 1505 1506 1508 1509 1511 1512 1514 1515 1516 1518 1519 1521 1522 1523 1524 1526 1527 1528 1529 1530 1531 1532 1534 1535 1536 1537 1538 1539 1540 1541 1542 1543
1500 1502 1513 1513 1506 1501 1498 1497 1498 1498 1499 1500 1501 1502 1502 1503 1504 1505 1506 1507 1509 1510 1511 1513 1514 1516 1517 1518 1519 1521 1522 1523 1525 1526 1527 1528 1529 1530 1532 1533 1534 1535 1536 1537 1539 1540 1541 1542 1543
1500 1506 1510 1508 1504 1500 1496 1495 1496 1497 1497 1498 1499 1500 1500 1501 1503 1504 1505 1507 1508 1509 1510 1512 1513 1514 1515 1517 1518 1519 1521 1522 1523 1524 1526 1527 1528 1529 1530 1532 1533 1534 1535 1537 1538 1539 1540 1541 1542
1498 1504 1506 1506 1503 1498 1494 1493 1493 1494 1495 1496 1497 1498 1498 1499 1501 1502 1504 1506 1507 1508 1509 1510 1511 1512 1514 1515 1516 1518 1519 1521 1522 1523 1524 1526 1527 1528 1529 1531 1532 1533 1535 1536 1537 1538 1539 1540 1542
1497 1505 1506 1501 1500 1495 1492 1492 1493 1493 1493 1494 1494 1495 1496 1497 1499 1500 1502 1503 1505 1506 1507 1508 1509 1511 1512 1513 1514 1516 1517 1519 1520 1521 1523 1524 1526 1527 1528 1529 1531 1532 1533 1535 1536 1537 1538 1540 1541
1496 1502 1496 1493 1492 1491 1491 1491 1491 1492 1492 1492 1492 1493 1494 1495 1496 1497 1498 1500 1501 1503 1505 1506 1507 1508 1510 1511 1512 1514 1515 1517 1518 1520 1521 1522 1524 1525 1527 1528 1529 1531 1532 1533 1535 1536 1537 1539 1540
1493 1494 1490 1489 1489 1489 1489 1489 1490 1490 1490 1489 1489 1490 1491 1493 1494 1495 1495 1497 1498 1500 1502 1503 1505 1506 1507 1508 1510 1511 1513 1515 1516 1518 1519 1521 1522 1523 1525 1526 1528 1529 1530 1532 1533 1535 1536 1537 1539
1492 1489 1488 1487 1487 1488 1488 1487 1488 1486 1485 1485 1487 1488 1489 1489 1490 1491 1492 1494 1496 1497 1499 1500 1502 1503 1505 1505 1507 1509 1511 1512 1514 1516 1517 1519 1520 1521 1523 1524 1526 1527 1529 1530 1532 1533 1535 1536 1537
1489 1487 1486 1486 1486 1486 1486 1485 1485 1482 1481 1483 1484 1485 1485 1486 1487 1489 1490 1491 1493 1494 1496 1497 1499 1501 1502 1503 1504 1506 1508 1510 1512 1513 1515 1516 1518 1519 1521 1522 1524 1525 1527 1528 1530 1531 1533 1534 1536
1486 1485 1484 1484 1483 1483 1483 1482 1482 1476 1478 1479 1480 1481 1482 1483 1484 1485 1487 1488 1489 1491 1493 1494 1495 1497 1499 1500 1501 1504 1506 1508 1509 1511 1512 1514 1515 1517 1518 1520 1522 1523 1525 1526 1528 1529 1531 1532 1534
1485 1486 1484 1481 1480 1480 1482 1480 1476 1472 1475 1476 1476 1477 1478 1479 1481 1481 1483 1484 1486 1488 1489 1491 1493 1494 1496 1498 1499 1501 1503 1505 1507 1508 1509 1511 1513 1514 1516 1518 1519 1521 1523 1524 1526 1527 1529 1530 1532
1485 1487 1486 1479 1478 1478 1483 1477 1470 1470 1472 1472 1473 1474 1475 1476 1477 1478 1480 1481 1483 1484 1486 1488 1489 1491 1493 1495 1497 1499 1501 1503 1504 1506 1507 1508 1510 1512 1513 1515 1517 1518 1520 1522 1523 1525 1526 1527 1529
1488 1488 1485 1480 1476 1476 1478 1474 1468 1468 1468 1469 1469 1470 1471 1472 1473 1475 1476 1478 1479 1481 1483 1484 1486 1488 1490 1492 1494 1496 1498 1500 1502 1503 1504 1505 1507 1509 1511 1512 1514 1516 1517 1519 1520 1522 1524 1525 1527
1486 1487 1483 1480 1475 1476 1476 1471 1466 1466 1466 1465 1465 1466 1467 1467 1468 1471 1473 1474 1476 1478 1479 1481 1483 1485 1487 1489 1491 1493 1495 1497 1498 1500 1501 1503 1504 1506 1508 1509 1511 1513 1515 1516 1518 1519 1521 1523 1524
1480 1481 1480 1476 1473 1475 1473 1469 1464 1463 1463 1462 1461 1462 1462 1463 1465 1467 1468 1470 1472 1474 1476 1478 1480 1482 1483 1485 1487 1489 1491 1493 1495 1497 1499 1500 1502 1503 1505 1506 1508 1510 1512 1513 1515 1517 1518 1520 1521
1479 1480 1478 1475 1473 1473 1471 1466 1461 1459 1458 1456 1456 1457 1458 1459 1460 1462 1464 1466 1468 1469 1472 1474 1476 1478 1480 1482 1484 1486 1488 1490 1492 1494 1495 1497 1499 1500 1502 1503 1505 1507 1509 1511 1512 1514 1515 1516 1519
1476 1477 1475 1476 1473 1471 1472 1464 1458 1453 1452 1452 1452 1453 1454 1455 1456 1458 1459 1461 1463 1465 1468 1470 1472 1474 1477 1479 1481 1483 1485 1487 1489 1490 1492 1494 1496 1497 1499 1500 1502 1504 1506 1507 1509 1510 1512 1513 1515
1473 1470 1472 1473 1476 1476 1472 1471 1455 1451 1450 1448 1448 1449 1450 1451 1452 1453 1455 1457 1459 1461 1464 1466 1468 1471 1473 1475 1477 1479 1481 1483 1485 1487 1489 1490 1492 1494 1496 1497 1499 1501 1502 1504 1505 1507 1509 1510 1512
1468 1467 1470 1471 1474 1476 1473 1473 1456 1451 1449 1446 1445 1445 1446 1447 1448 1449 1451 1453 1455 1458 1460 1462 1464 1467 1469 1472 1474 1476 1479 1481 1483 1484 1485 1487 1489 1491 1492 1494 1496 1497 1499 1501 1502 1503 1505 1507 1509
1465 1468 1471 1473 1475 1475 1468 1471 1456 1451 1444 1442 1442 1443 1444 1445 1446 1447 1448 1450 1452 1454 1457 1459 1461 1463 1466 1468 1471 1473 1475 1477 1479 1480 1482 1484 1486 1487 1489 1490 1492 1494 1495 1497 1498 1500 1502 1504 1506
1465 1471 1477 1476 1476 1468 1462 1463 1453 1441 1439 1438 1439 1440 1441 1442 1443 1445 1446 1447 1449 1451 1453 1455 1457 1460 1462 1465 1467 1470 1472 1474 1475 1477 1479 1480 1482 1483 1485 1487 1488 1490 1492 1493 1495 1496 1498 1500 1502
1463 1465 1472 1472 1470 1467 1462 1458 1446 1438 1435 1435 1436 1437 1438 1440 1441 1442 1443 1445 1447 1448 1450 1452 1454 1457 1459 1461 1464 1467 1469 1471 1473 1474 1476 1477 1479 1480 1482 1483 1484 1486 1488 1489 1491 1492 1494 1496 1498
1462 1464 1462 1469 1472 1472 1461 1454 1444 1437 1435 1435 1435 1436 1436 1438 1439 1440 1442 1443 1445 1446 1448 1450 1452 1454 1456 1458 1461 1464 1466 1468 1469 1471 1473 1474 1476 1477 1478 1480 1481 1482 1484 1486 1488 1489 1490 1492 1494
1458 1460 1465 1466 1465 1463 1454 1453 1446 1439 1436 1435 1435 1435 1435 1437 1438 1439 1440 1441 1443 1444 1446 1448 1450 1451 1453 1456 1458 1460 1462 1465 1467 1468 1469 1470 1472 1473 1475 1476 1478 1479 1481 1483 1484 1486 1487 1489 1491
1459 1461 1460 1462 1461 1462 1459 1449 1438 1437 1434 1434 1434 1434 1435 1436 1437 1438 1439 1440 1441 1443 1444 1446 1447 1449 1451 1453 1455 1457 1459 1461 1463 1465 1466 1467 1468 1470 1471 1473 1474 1476 1478 1479 1481 1482 1484 1485 1487
1455 1457 1460 1461 1461 1463 1461 1450 1435 1435 1434 1434 1434 1435 1435 1436 1436 1437 1438 1439 1440 1441 1442 1444 1445 1447 1449 1451 1452 1454 1457 1458 1460 1462 1463 1464 1465 1466 1468 1470 1471 1473 1475 1476 1477 1479 1480 1482 1483